Location: Unspecified
(38.9820°N, 94.4650°W)
Time: 08:29:47
(UTC-06:00)

Okean 3 - Visible Passes

Search period start: 05 December 2016 00:00
Search period end: 15 December 2016 00:00
Orbit: 578 x 603 km, 82.5° (Epoch: 04 December)

Date Brightness Start Highest point End Pass type
(mag) Time Alt. Az. Time Alt. Az. Time Alt. Az.
06 Dec 4.7 17:21:49 10° SSW 17:25:56 45° W 17:30:03 10° N visible
07 Dec 5.5 17:30:36 10° SW 17:34:23 30° WNW 17:38:08 10° NNW visible
08 Dec 6.1 17:39:40 10° WSW 17:42:51 20° WNW 17:46:02 10° NNW visible
09 Dec 6.4 17:49:14 10° WSW 17:51:22 14° WNW 17:53:31 10° NW visible
